RH
74 76 80 84 87 89 94 92 94 94 93 91 89 87 84 77 72 69 72 75 72 70 72 72 74 76 61 26 12 16 48 46 20 12 11 10 11 9 10 8 7 8 7 6 6 8 7
74 74 74 80 81 82 87 95 95 95 94 92 91 89 86 82 75 71 72 75 74 72 74 74 74 78 50 27 10 12 14 13 11 10 10 10 12 11 12 10 10 8 8 9 8 7 7
75 76 76 77 79 80 82 87 96 95 95 94 92 90 89 85 81 73 71 74 75 73 73 75 76 51 35 20 10 12 14 11 10 10 11 10 12 13 12 14 10 11 13 9 8 7 8
71 76 75 80 80 81 83 82 85 89 96 94 93 92 90 87 82 78 76 74 74 72 77 80 78 45 31 14 13 14 13 11 10 10 11 10 11 14 15 13 13 14 14 15 10 8 8
69 70 72 79 83 83 82 81 82 84 87 95 93 92 91 87 84 81 75 73 72 78 76 73 56 45 25 26 15 11 10 10 10 10 13 10 12 16 15 19 17 13 15 13 10 7 6
66 67 70 76 80 82 81 83 83 84 85 88 94 94 92 88 85 80 76 69 65 76 62 35 27 28 23 18 11 10 9 11 12 14 16 17 16 19 18 16 18 15 12 10 10 7 7
66 65 67 71 78 78 79 80 83 83 84 84 87 94 92 88 85 81 65 61 53 51 41 35 27 24 13 11 11 12 10 12 13 15 21 17 18 17 13 15 14 13 11 12 9 8 11
67 64 67 71 70 72 73 77 80 83 84 84 85 92 92 89 86 80 66 49 35 35 35 22 28 21 14 11 14 12 9 15 17 20 15 18 22 14 14 14 15 15 16 16 12 11 13
68 73 69 68 70 73 74 77 81 82 84 86 85 88 93 91 83 68 52 50 30 37 51 40 26 18 11 14 15 10 11 13 15 19 17 20 15 17 18 16 17 17 19 17 18 15 14
72 76 74 70 71 74 82 80 79 79 81 82 85 85 94 87 79 52 58 38 29 53 90 59 31 21 15 13 18 8 11 13 18 20 17 18 14 16 19 18 16 21 17 21 22 23 26
72 74 74 72 78 80 81 84 82 81 82 81 80 83 91 76 63 57 43 38 46 55 94 39 33 14 12 20 15 13 10 15 23 22 23 23 18 24 22 18 19 22 22 25 27 27 27
72 74 74 74 77 80 80 82 84 85 84 80 80 83 89 81 67 51 42 43 70 98 94 56 24 23 21 21 17 14 16 20 20 22 21 20 17 20 18 17 21 21 27 28 29 30 42
75 78 79 79 79 81 82 82 85 83 80 80 81 83 89 63 72 44 50 64 96 97 40 43 35 24 24 25 20 20 28 30 30 40 36 25 21 18 18 23 22 28 37 52 49 52 40
78 80 80 79 79 82 82 84 84 82 81 83 83 84 86 61 49 55 55 94 97 45 42 28 28 27 29 24 23 22 27 30 26 24 34 33 39 22 20 24 24 32 31 45 49 36 35
78 78 78 81 83 84 84 84 82 82 82 81 84 96 91 73 54 52 84 97 74 43 30 38 22 26 30 22 30 29 30 29 27 28 45 51 30 19 20 20 23 33 38 29 44 40 50
76 75 78 81 83 84 84 85 86 83 80 84 98 98 96 76 58 75 95 86 60 40 35 31 33 26 37 26 43 36 34 24 26 28 29 42 63 26 22 21 23 30 29 53 48 61 57
79 76 78 82 85 85 86 86 83 80 88 90 98 99 94 78 82 95 95 78 59 46 41 54 30 36 33 41 44 42 33 28 30 39 37 40 54 41 28 37 35 40 42 40 43 53 70
80 79 79 83 86 89 91 90 90 91 95 88 94 99 96 86 98 96 92 64 58 47 32 25 27 29 40 43 50 50 42 34 29 34 47 42 81 86 42 27 26 35 44 48 83 59 52
78 79 79 84 88 90 93 95 94 95 84 94 99 99 97 82 94 97 68 68 56 49 29 30 36 36 43 99 95 97 50 35 34 35 45 47 84 62 52 43 32 36 43 40 58 85 84
77 77 80 83 90 89 87 93 95 90 81 92 99 99 100 99 98 69 79 72 66 38 34 39 41 59 67 98 80 100 72 44 38 37 63 57 56 64 95 76 49 51 45 46 50 80 86
78 77 82 83 86 84 87 89 92 93 91 97 96 88 78 97 99 78 61 73 50 46 35 31 56 62 74 93 75 79 55 48 42 58 48 54 79 81 54 51 57 80 66 71 77 87 92
79 79 79 84 83 86 85 88 90 93 90 97 99 70 59 62 73 80 77 77 46 40 40 42 52 50 55 66 64 80 63 48 52 49 53 57 74 96 100 65 59 87 93 99 62 68 73
80 80 79 86 85 85 84 88 91 92 93 97 74 40 48 67 67 84 87 60 54 47 37 35 38 43 45 31 32 36 37 40 41 54 67 65 67 73 77 84 65 90 91 88 62 56 58
80 80 79 80 89 88 89 91 92 91 92 98 94 83 72 84 69 69 58 48 52 46 50 38 39 42 38 36 37 38 37 42 44 49 56 63 58 59 73 79 92 95 58 54 60 62 59
79 81 80 79 81 87 88 88 92 88 86 98 97 94 93 96 68 80 61 64 66 49 54 47 32 33 38 43 54 54 56 53 47 40 42 42 56 71 69 76 82 77 56 59 63 70 57
80 78 82 82 80 86 88 88 90 84 82 91 68 69 71 87 94 65 73 69 78 64 51 60 42 42 42 45 55 50 61 44 48 42 38 41 44 68 66 70 78 67 46 41 43 72 54
82 79 83 86 86 86 89 89 88 85 82 79 82 76 86 76 58 53 57 66 46 49 62 58 56 53 52 57 66 51 47 26 55 54 58 60 58 72 68 60 78 47 45 45 76 85 52
84 82 84 82 87 88 89 89 84 82 76 70 77 82 76 79 61 42 42 49 42 45 64 55 56 47 60 54 47 44 58 40 46 35 54 52 64 68 58 61 91 48 55 74 71 55 50
84 85 83 83 80 82 82 83 81 79 80 74 86 82 62 62 70 58 57 50 41 43 45 51 40 46 38 46 40 41 59 61 41 72 37 56 47 72 75 83 70 68 74 56 48 52 52
Wind_Speed
7 7 8 7 7 11 16 16 14 15 14 14 13 12 11 11 9 7 7 9 12 14 12 12 15 19 15 9 4 9 6 9 9 7 5 8 9 10 10 12 10 14 14 15 12 9 10
7 7 6 7 7 8 11 14 15 15 15 14 14 13 12 11 10 8 7 9 10 13 15 13 14 15 8 13 6 5 1 5 5 6 6 6 6 9 9 13 12 16 13 15 16 16 14
9 9 7 6 5 7 8 7 9 14 15 15 14 14 13 12 9 8 8 8 11 13 14 15 13 7 11 15 2 5 3 4 3 4 6 4 5 8 10 11 6 10 14 16 18 12 2
8 10 10 9 6 5 4 6 7 8 13 16 16 15 14 14 11 8 6 8 10 15 14 15 8 9 8 3 5 5 8 8 5 6 6 8 6 10 13 10 14 17 17 15 11 10 10
9 10 12 12 10 8 6 4 6 8 8 9 16 16 16 15 12 8 5 9 13 14 11 8 6 8 10 3 8 11 5 7 3 4 5 5 5 9 10 10 12 17 12 11 6 12 4
11 11 13 13 13 12 11 8 5 5 7 8 8 13 15 15 13 9 6 8 9 8 8 10 11 9 14 7 8 5 8 5 7 6 6 8 7 8 10 11 11 11 8 13 15 13 11
12 13 13 14 13 13 12 11 9 7 6 6 8 12 17 17 15 10 3 6 5 6 9 10 9 8 1 2 7 8 10 8 8 9 12 16 9 11 16 5 8 8 11 14 13 11 12
10 14 14 13 14 16 17 14 11 11 8 8 7 8 16 17 15 11 1 5 1 4 6 12 22 21 10 7 9 12 10 8 13 13 17 11 15 16 3 2 6 9 11 13 13 10 12
11 11 13 14 17 17 18 16 10 8 8 10 8 6 12 15 17 5 8 3 2 3 3 11 15 18 15 11 16 14 15 14 14 14 16 15 9 6 4 7 11 12 12 11 12 13 15
10 12 11 15 17 18 16 15 14 12 10 11 11 10 14 17 7 6 6 6 4 2 1 7 8 13 19 13 15 22 15 14 11 14 16 15 16 9 9 10 9 11 4 5 12 10 9
12 12 13 14 17 17 17 20 18 16 15 16 15 13 19 23 4 9 8 8 5 2 8 2 10 3 11 17 3 12 11 9 15 15 7 9 13 8 12 14 4 8 5 8 12 12 14
14 15 15 16 18 20 19 21 21 19 17 22 18 16 26 15 4 6 13 11 5 2 8 7 3 8 15 19 13 10 12 9 9 16 16 18 4 6 11 7 5 8 10 15 15 12 11
15 15 16 18 20 21 22 23 22 21 24 23 19 19 27 14 8 14 14 8 3 8 6 13 10 12 17 18 21 15 15 16 11 7 13 19 20 15 10 9 12 9 10 6 6 8 11
16 15 18 20 23 22 25 24 24 27 26 24 21 21 28 15 13 20 10 3 11 13 23 3 15 16 17 19 16 17 15 16 19 18 12 12 14 19 14 17 8 16 9 6 6 7 12
16 18 19 20 22 24 24 26 30 31 29 26 22 14 15 14 21 15 9 9 11 20 15 21 16 17 18 18 7 14 17 18 18 19 8 8 12 13 14 10 7 6 8 7 9 13 11
18 19 20 22 23 25 27 31 34 33 30 26 13 12 16 16 19 12 9 22 15 18 22 17 21 16 18 22 11 6 9 11 17 3 5 5 5 4 12 9 11 12 2 3 5 5 7
17 19 21 23 23 28 31 35 35 31 26 25 10 10 9 20 11 10 11 14 17 22 14 25 20 16 17 14 14 15 8 8 6 6 3 4 2 5 11 8 14 9 9 7 8 10 6
16 18 19 20 25 29 29 34 31 24 30 21 11 7 15 18 11 7 13 18 16 18 22 17 16 12 13 17 15 8 12 6 8 12 11 4 3 4 11 8 8 8 9 10 6 7 7
16 15 17 17 22 13 23 23 19 31 43 13 7 5 8 17 14 11 11 14 15 22 17 13 11 7 4 3 5 3 6 3 9 9 4 6 4 4 6 6 6 5 5 5 5 4 9
12 12 13 9 14 21 25 31 25 21 11 4 7 8 4 7 4 17 17 17 14 21 18 10 7 6 6 3 2 6 8 6 7 6 6 3 5 10 4 3 2 2 4 8 11 7 5
11 10 7 6 8 14 19 22 22 20 12 3 1 6 8 13 8 15 20 15 23 19 15 19 10 10 11 5 5 5 10 10 8 10 5 4 5 1 4 3 6 3 2 5 5 5 5
12 11 8 11 6 8 14 18 18 19 17 3 1 8 11 19 15 15 18 21 23 22 18 23 10 18 16 9 9 10 12 13 8 12 9 6 3 3 4 5 2 4 6 7 1 4 7
14 12 10 10 12 8 6 10 14 18 15 3 5 10 10 15 18 11 12 18 17 13 11 14 6 12 17 9 12 14 11 10 4 13 11 7 6 7 6 9 9 8 7 2 4 5 7
12 12 11 10 8 15 8 3 6 10 12 3 4 3 5 12 13 13 18 18 19 13 8 9 11 9 7 12 11 10 5 7 6 10 10 9 11 7 1 9 7 3 7 6 7 6 11
12 11 11 13 11 5 8 4 9 10 9 3 2 2 2 6 11 11 16 13 15 9 7 14 9 9 9 10 7 8 5 5 8 10 9 8 5 4 4 9 5 4 11 10 9 6 10
13 11 9 12 14 9 12 8 10 14 11 4 4 1 4 7 9 19 19 21 12 14 10 9 9 5 6 5 6 7 7 9 9 8 10 7 8 4 7 5 3 6 13 10 5 6 11
13 13 10 10 14 14 10 9 12 9 9 4 4 4 4 3 14 19 15 16 15 9 7 8 6 4 4 4 6 5 7 11 8 10 8 10 9 10 8 6 4 5 9 3 6 3 13
14 13 14 15 13 9 8 9 6 7 9 3 2 4 3 2 5 14 15 17 12 7 7 11 6 4 3 6 5 4 1 3 3 1 10 10 7 6 6 8 4 9 6 5 4 9 8
13 15 14 14 15 6 3 3 6 12 14 4 4 7 4 7 9 15 15 12 9 11 8 11 3 10 5 5 4 4 2 1 6 3 2 1 3 3 5 3 3 5 2 8 8 9 8
Wind_Direction
309 311 311 304 317 357 243 227 220 213 210 213 212 210 215 231 243 256 277 294 308 312 317 319 318 322 321 249 264 131 193 205 229 248 289 318 301 306 282 310 307 281 270 275 275 295 275
274 286 301 325 335 334 358 249 224 211 210 211 210 204 207 217 232 243 265 287 298 308 312 312 311 321 260 278 95 144 215 243 253 286 281 278 320 326 287 274 278 297 302 284 281 276 270
270 270 262 260 297 321 336 347 280 218 212 208 210 202 199 207 222 239 264 286 302 305 305 303 303 289 274 258 313 184 204 272 312 296 295 330 303 293 323 289 337 299 283 279 262 246 332
312 311 287 265 245 259 300 333 322 342 230 212 204 204 196 196 207 215 254 285 295 296 298 291 282 277 261 102 308 233 228 243 232 277 273 283 283 274 268 279 288 263 259 268 105 163 208
299 302 302 302 253 238 240 266 310 320 319 266 210 201 197 187 188 194 242 282 290 289 288 277 243 207 271 108 218 223 230 247 290 264 258 295 266 252 274 243 274 232 246 226 214 214 331
289 293 297 296 292 262 242 228 241 275 306 316 269 216 192 184 180 169 236 269 284 290 232 214 256 282 225 238 191 196 207 244 249 239 255 233 233 236 220 230 251 337 305 313 301 301 315
281 286 287 287 291 292 288 264 244 246 265 282 294 232 195 184 172 166 172 267 268 217 235 227 180 258 223 165 107 212 207 214 234 241 244 210 242 241 246 18 340 310 294 282 280 291 302
271 282 282 278 282 283 280 273 267 255 255 258 277 284 207 176 165 162 150 257 236 55 313 268 255 270 266 193 236 231 183 224 209 240 229 237 248 251 51 302 295 274 267 269 272 290 306
279 282 281 288 287 278 270 264 259 265 266 252 241 260 186 164 137 168 198 220 89 128 337 287 262 244 233 227 249 240 183 223 252 243 254 232 280 113 238 266 255 246 252 280 303 313 284
268 280 280 287 281 286 268 252 250 256 262 269 262 222 183 144 128 169 209 167 180 300 327 257 236 240 224 199 257 242 177 219 235 248 254 256 253 210 237 249 246 263 42 312 287 287 280
271 269 275 283 280 273 269 256 250 249 255 262 260 248 163 163 175 189 185 149 193 192 258 10 205 244 198 179 118 202 169 216 242 226 242 245 220 210 235 244 179 254 355 287 281 274 282
274 273 272 278 278 270 269 261 253 244 250 260 254 236 174 197 230 194 134 150 107 146 235 224 163 195 217 204 217 157 183 255 249 256 230 244 271 273 253 228 215 294 281 265 241 244 254
273 274 280 282 281 273 271 267 254 252 256 253 241 225 173 182 191 148 147 142 114 230 85 210 207 206 211 209 226 206 197 204 212 200 229 237 239 223 227 241 210 229 264 288 220 214 238
276 283 285 287 283 276 276 267 262 262 261 248 230 215 188 192 159 150 166 109 231 239 220 167 194 202 210 207 216 221 231 223 220 249 296 232 219 208 184 227 259 206 256 272 307 291 313
281 285 289 291 288 282 277 273 270 265 258 247 215 202 185 191 164 161 155 204 225 232 223 215 192 203 206 214 197 206 230 237 228 209 234 321 242 169 159 203 220 220 230 268 293 287 266
280 287 292 295 288 286 282 276 268 266 262 246 194 173 188 173 168 163 183 222 229 232 244 219 207 195 199 200 163 193 226 236 239 161 224 329 286 181 174 212 238 248 237 262 234 268 261
277 286 293 293 291 291 284 273 266 261 247 182 153 155 159 153 143 171 199 220 224 252 255 227 202 202 208 190 187 197 213 236 144 164 159 265 256 242 227 199 246 189 228 230 262 256 274
273 285 296 299 300 297 291 279 270 229 158 144 154 146 159 156 160 194 206 215 221 227 228 201 201 208 213 188 183 216 225 265 170 188 204 207 78 266 225 255 281 209 233 247 231 259 281
270 284 298 308 314 360 358 294 243 167 153 131 116 102 169 170 178 188 193 209 235 210 203 178 209 194 131 131 153 151 238 184 176 203 192 157 168 230 215 215 194 226 198 254 217 196 252
259 276 297 298 334 24 21 36 67 115 110 64 124 129 134 205 321 185 181 192 204 204 184 174 160 106 118 135 78 182 192 183 167 163 75 301 258 255 334 15 128 210 334 320 277 250 277
245 260 270 245 12 40 33 42 42 30 18 1 86 138 157 186 195 190 181 185 190 180 186 187 146 176 155 143 190 210 187 160 199 147 192 219 271 345 306 101 77 46 334 319 277 302 252
228 234 242 225 117 48 63 38 28 14 355 67 128 142 166 157 191 182 175 196 185 182 180 187 179 190 185 165 194 177 184 176 179 174 209 192 230 139 272 245 185 199 227 241 175 120 111
222 227 226 235 185 157 83 48 25 2 352 8 284 149 157 164 177 170 185 179 183 151 198 180 193 176 197 202 204 178 179 184 211 172 184 194 211 186 249 190 226 234 199 189 167 58 181
211 215 216 218 229 197 142 91 10 339 350 312 310 33 125 160 180 179 175 175 144 179 171 162 221 165 96 88 75 98 122 174 181 175 199 210 205 210 311 166 228 88 183 183 139 119 106
207 204 209 214 203 213 160 206 310 301 308 290 326 13 72 135 159 148 162 152 150 183 198 204 166 133 137 144 131 138 159 188 215 224 206 229 219 256 230 216 102 192 198 172 179 169 152
197 197 224 200 194 190 162 233 279 295 319 282 193 255 212 135 185 159 157 161 170 190 183 77 79 116 167 217 189 186 173 198 177 181 198 226 249 256 290 265 252 81 166 201 204 206 182
186 184 149 137 172 177 187 236 261 296 304 295 321 182 253 152 166 178 176 165 176 150 142 142 137 164 234 220 209 215 229 195 155 184 182 205 212 226 245 267 95 128 119 143 213 110 159
183 174 157 150 140 151 179 236 273 281 286 258 263 218 153 86 146 173 167 182 153 149 142 157 163 187 191 202 208 237 4 215 154 266 169 184 208 200 232 240 173 122 147 240 90 120 149
164 156 151 150 136 151 185 252 281 294 289 241 207 217 180 69 93 76 58 41 47 15 148 164 152 168 169 208 223 239 129 59 224 188 95 13 21 74 10 59 94 28 88 139 135 127 121